CUBEBUG-2 (LO-74)

Last updated on Thu Sep 10 2026 00:03:12 GMT+0000 (Coordinated Universal Time)

1 39440U 13066AA 26252.58502310 .00002331 00000+0 21576-3 0 9999 2 39440 97.8967 201.9793 0058430 106.9209 253.8428 14.94234152689590
UTC large
Height (km)
Speed (km/s)
/
Latitude / Longitude
Inclination (degrees)
Orbital Period (minutes)
Azimuth
Elevation
Range (km)
Doppler Factor

Next 0 passes for location: London (51.5072 / 0.1276)

No passes found over London.
CUBEBUG-2 (LO-74)